Regional Weather Roundup
Issued by NWS Glasgow, MT

Home | Current Version | Previous Version | Text Only | Print | Product List | Glossary On
Versions: 1 2 3 4 5 6 7 8 9 10 11 12 13 14 15 16 17 18 19 20 21 22 23 24 25 26 27 28 29 30 31 32 33 34 35 36 37 38 39 40 41 42 43 44 45 46 47 48 49 50
000
ASUS45 KGGW 301215
RWRGGW
HOURLY REGIONAL WEATHER ROUNDUP FOR NORTHEAST MONTANA
NATIONAL WEATHER SERVICE GLASGOW MONTANA
600 AM MDT THU JUL 30 2015

NOTE: "FAIR" INDICATES FEW OR NO CLOUDS BELOW 12,000 FEET WITH NO
SIGNIFICANT WEATHER AND/OR OBSTRUCTIONS TO VISISBILITY.

NORTHEAST MONTANA


CITY           SKY/WX    TMP DP  RH WIND       PRES   REMARKS
GLASGOW        CLEAR     56  51  84 CALM      30.17R
6HR MIN TEMP:  55; 6HR MAX TEMP:  66; 6HR PCP: TRACE;

PLENTYWOOD       N/A     55  50  83 N3          N/A
WOLF POINT     CLEAR     51  48  89 NW5       30.17R
JORDAN           N/A     50  47  89 W3        30.19R
WINNETT          N/A     49  44  83 SW2         N/A
SIDNEY         CLEAR     54  48  82 CALM      30.15S
GLENDIVE       CLEAR     52  46  82 W8        30.18S
MALTA            N/A     53  51  93 SW3         N/A
SCOBEY           N/A     47  42  83 CALM      30.15R

FORT PECK REPORTS


CITY           SKY/WX    TMP DP  RH WIND       PRES   REMARKS
FORT PECK        N/A     58  53  84 NW3         N/A
THE PINES        N/A     59  47  64 N5          N/A

SOUTHEAST MONTANA


CITY           SKY/WX    TMP DP  RH WIND       PRES   REMARKS
BILLINGS       PTCLDY    58  40  51 SW16      30.26F
MILES CITY     CLEAR     54  45  71 SE7       30.18R
BAKER          CLEAR     59  40  49 N3        30.20R
LIVINGSTON     CLEAR     46  40  79 NW5       30.33S

CENTRAL MONTANA


CITY           SKY/WX    TMP DP  RH WIND       PRES   REMARKS
HAVRE          CLOUDY    52  49  89 SW5       30.22R
LEWISTOWN      CLEAR     51  41  68 SE6       30.29R
GREAT FALLS    CLEAR     48  43  82 W7        30.26R
CUT BANK       CLEAR     46  37  71 N3        30.27R
HELENA         CLEAR     55  41  59 CALM      30.31R
BUTTE          CLEAR     42  37  82 CALM      30.39S
BOZEMAN        CLEAR     46  42  86 E5        30.34R

WESTERN MONTANA


CITY           SKY/WX    TMP DP  RH WIND       PRES   REMARKS
MISSOULA       CLEAR     51  43  74 CALM      30.30R
KALISPELL      NOT AVBL

NORTH DAKOTA


CITY           SKY/WX    TMP DP  RH WIND       PRES   REMARKS
WILLISTON      CLEAR     53  49  86 CALM      30.14R
DICKINSON      PTCLDY    54  45  71 W8        30.14F
MINOT          CLOUDY    60  53  77 SW9       30.07S
BISMARCK       CLEAR     57  49  74 NW13      30.14R

SOUTHERN SASKATCHEWAN


CITY           SKY/WX    TMP DP  RH WIND       PRES   REMARKS
REGINA         PTCLDY    54  52  94 W12       30.11R
MOOSE JAW      PTCLDY    57  52  82 W13       30.14R
ESTEVAN        PTCLDY    52  50  93 W8        30.11R
SWIFT CURRENT  CLEAR     50  48  93 W10       30.18S




USA.gov is the U.S. government's official web portal to all federal, state and local government web resources and services.